Flag for U.S.A. Weather past 2 weeks in Metlakatla, Alaska, U.S.A.

Now
51 °F

Drizzle. Fog.


Feels Like: 49 °F
Forecast: 52 / 58 °F
Wind: 7 mph from Southeast

Location: Annette Island

Current Time: Jun 2, 2015 at 9:40:39 AM

Latest Report: Jun 2, 2015 at 8:53 AM


Visibility: 5 mi

Pressure: 29.90 "Hg

Humidity: 100%

Dew point: 51 °F

Location of MetlakatlaLocation

Historic Weather in Metlakatla — Graph

°F

Metlakatla temperature yesterday

Maximum temperature yesterday: 72 °F (at 12:53 PM)
Minimum temperature yesterday: 48 °F (at 12:53 AM)
Average temperature yesterday: 56 °F

Past Weeks' High & Low Weather Summary

 TemperatureHumidityPressure
High74 °F (May 29, 2:53 PM)100% (May 18, 7:03 AM)30.20 "Hg (May 18, 7:03 AM)
Low47 °F (May 29, 4:53 AM)37% (May 29, 2:53 PM)29.80 "Hg (Jun 1, 8:53 PM)
Average56 °F82%30.06 "Hg
* Reported May 18 7:03 AM — Jun 2 7:53 AM, Metlakatla, Weather by CustomWeather, © 2015

Note: Actual official high and low records may vary slightly from our data, if they occured in-between our weather recording intervals... More about our weather records

Advertising

Metlakatla weather history for previous 24 hours

 ConditionsComfort  
Time TempWeatherWind HumidityBarometerVisibility
7:53 AM
Tue, Jun 2
51 °FDrizzle. Fog.5 mph100%29.90 "Hg6 mi
6:53 AM51 °FDrizzle. Low clouds.6 mph96%29.89 "Hg8 mi
5:53 AM51 °FDrizzle. Low clouds.8 mph92%29.89 "Hg10 mi
4:53 AM51 °FDrizzle. Low clouds.12 mph92%29.87 "Hg10 mi
3:53 AM51 °FMostly cloudy.12 mph96%29.87 "Hg10 mi
2:53 AM52 °FLow clouds.13 mph93%29.86 "Hg10 mi
1:59 AM53 °FPassing clouds.12 mph93%29.85 "Hg10 mi
12:53 AM53 °FClear.9 mph93%29.83 "Hg10 mi
11:53 PM
Mon, Jun 1
53 °FClear.3 mph93%29.82 "Hg10 mi
10:53 PM54 °FClear.6 mph90%29.82 "Hg10 mi
9:53 PM56 °FSunny.6 mph87%29.81 "Hg10 mi
8:53 PM56 °FSunny.5 mph87%29.80 "Hg10 mi
2:53 PM62 °FSunny.7 mph73%29.83 "Hg10 mi
1:53 PM63 °FSunny.7 mph73%29.83 "Hg10 mi
12:53 PM72 °FSunny.No wind57%29.83 "Hg10 mi
11:53 AM69 °FSunny.5 mph61%29.83 "Hg10 mi
10:53 AM66 °FSunny.6 mph68%29.84 "Hg10 mi
9:53 AM55 °FLow clouds.5 mph90%29.86 "Hg10 mi
Weather by CustomWeather, © 2015

See weather overviewHow to use our weather pages